FLX306 SBSV-SDIH

Flight info

Callsign FLX306
Flight time N/A
Altitude 10000
Route GEKEV DCT MOTBO DCT OPTEB DCT AROVA DCT EDMUS
Aircraft C400/L-SDGRY/S

Departure

Time 2026-05-04 23:11
Airport Deputado Luiz Eduardo Magalhães International Airport (SBSV)

Arrival

Time N/A
Airport Fazenda Irohy Airport (SDIH)
Time Latitude Longitude Altitude Speed Heading
2026-05-04 22:59 -12.91087 -38.34391 39 ft 0 kts 237°
2026-05-04 23:03 -12.91088 -38.34392 39 ft 0 kts 246°
2026-05-04 23:04 -12.91088 -38.34393 39 ft 0 kts 271°
2026-05-04 23:04 -12.91087 -38.34393 39 ft 0 kts 280°
2026-05-04 23:06 -12.91086 -38.34395 11 ft 0 kts 326°
2026-05-04 23:06 -12.91085 -38.34395 11 ft 0 kts 326°
2026-05-04 23:06 -12.91075 -38.34378 39 ft 6 kts 359°
2026-05-04 23:06 -12.91048 -38.34396 39 ft 5 kts 319°
2026-05-04 23:07 -12.90994 -38.34436 39 ft 7 kts 325°
2026-05-04 23:07 -12.90963 -38.34441 39 ft 4 kts 59°
2026-05-04 23:07 -12.90955 -38.34428 39 ft 0 kts 56°
2026-05-04 23:08 -12.90920 -38.34378 40 ft 13 kts 51°
2026-05-04 23:08 -12.90911 -38.34367 40 ft 0 kts 52°
2026-05-04 23:09 -12.90910 -38.34366 40 ft 1 kts 53°
2026-05-04 23:09 -12.90909 -38.34364 40 ft 3 kts 53°
2026-05-04 23:09 -12.90886 -38.34329 43 ft 9 kts 52°
2026-05-04 23:10 -12.90942 -38.34250 42 ft 31 kts 143°
2026-05-04 23:10 -12.91207 -38.34030 91 ft 59 kts 140°
2026-05-04 23:10 -12.91579 -38.33740 234 ft 77 kts 144°
2026-05-04 23:10 -12.92033 -38.33367 498 ft 91 kts 138°
2026-05-04 23:11 -12.92456 -38.32873 866 ft 94 kts 139°
2026-05-04 23:11 -12.93032 -38.32549 1198 ft 100 kts 161°
2026-05-04 23:11 -12.93805 -38.32371 1314 ft 124 kts 169°
2026-05-04 23:11 -12.94629 -38.32256 1715 ft 122 kts 181°
2026-05-04 23:12 -12.95418 -38.32716 1937 ft 140 kts 224°
2026-05-04 23:12 -12.95809 -38.33648 2259 ft 143 kts 250°
2026-05-04 23:12 -12.96013 -38.34460 2932 ft 109 kts 242°
2026-05-04 23:12 -12.96322 -38.35251 3103 ft 128 kts 237°
2026-05-04 23:13 -12.96753 -38.36114 3355 ft 137 kts 232°
2026-05-04 23:13 -12.97285 -38.36933 3578 ft 147 kts 233°
2026-05-04 23:13 -12.97784 -38.37812 4018 ft 137 kts 231°
2026-05-04 23:13 -12.98273 -38.38714 4107 ft 157 kts 234°
2026-05-04 23:14 -12.98859 -38.39610 4479 ft 147 kts 227°
2026-05-04 23:14 -12.99431 -38.40291 5128 ft 121 kts 216°
2026-05-04 23:14 -12.99973 -38.41055 5329 ft 139 kts 230°
2026-05-04 23:14 -13.00556 -38.41891 5452 ft 153 kts 225°
2026-05-04 23:15 -13.01130 -38.42703 6166 ft 114 kts 236°
2026-05-04 23:15 -13.01525 -38.43677 5840 ft 162 kts 245°
2026-05-04 23:15 -13.01850 -38.44675 6475 ft 140 kts 239°
2026-05-04 23:15 -13.02301 -38.45439 6972 ft 121 kts 229°
2026-05-04 23:16 -13.02771 -38.46271 6958 ft 152 kts 240°
2026-05-04 23:16 -13.03203 -38.47360 6894 ft 174 kts 241°
2026-05-04 23:16 -13.03721 -38.48518 6863 ft 181 kts 236°
2026-05-04 23:16 -13.04353 -38.49642 6884 ft 183 kts 234°
2026-05-04 23:17 -13.04930 -38.50826 6890 ft 187 kts 239°
2026-05-04 23:17 -13.05469 -38.52032 6897 ft 189 kts 240°
2026-05-04 23:17 -13.06015 -38.53265 6908 ft 190 kts 240°
2026-05-04 23:17 -13.06563 -38.54502 6912 ft 191 kts 240°
2026-05-04 23:18 -13.07108 -38.55748 6873 ft 194 kts 240°
2026-05-04 23:18 -13.07683 -38.57032 6675 ft 203 kts 240°
2026-05-04 23:18 -13.08285 -38.58362 6443 ft 208 kts 239°
2026-05-04 23:18 -13.08896 -38.59727 6200 ft 211 kts 240°
2026-05-04 23:19 -13.09507 -38.61093 5956 ft 211 kts 240°
2026-05-04 23:19 -13.10132 -38.62472 5715 ft 215 kts 240°
2026-05-04 23:19 -13.10747 -38.63875 5469 ft 217 kts 246°
2026-05-04 23:19 -13.11003 -38.65428 5227 ft 223 kts 259°
2026-05-04 23:20 -13.11160 -38.67017 4998 ft 224 kts 260°
2026-05-04 23:20 -13.11309 -38.68611 4754 ft 224 kts 260°
2026-05-04 23:20 -13.11455 -38.70203 4508 ft 223 kts 259°
2026-05-04 23:20 -13.11564 -38.71790 4262 ft 224 kts 265°
2026-05-04 23:21 -13.11568 -38.73370 4019 ft 224 kts 265°
2026-05-04 23:21 -13.11715 -38.74943 3775 ft 220 kts 256°
2026-05-04 23:21 -13.11949 -38.76493 3618 ft 217 kts 256°
2026-05-04 23:21 -13.12178 -38.77988 3606 ft 209 kts 256°
2026-05-04 23:22 -13.12403 -38.79442 3605 ft 204 kts 256°
2026-05-04 23:22 -13.12622 -38.80875 3601 ft 202 kts 256°
2026-05-04 23:22 -13.12839 -38.82296 3597 ft 201 kts 256°
2026-05-04 23:22 -13.13052 -38.83704 3597 ft 199 kts 256°
2026-05-04 23:23 -13.13266 -38.85108 3601 ft 199 kts 256°
2026-05-04 23:23 -13.13479 -38.86509 3600 ft 199 kts 256°
2026-05-04 23:23 -13.13882 -38.87829 3596 ft 190 kts 230°
2026-05-04 23:23 -13.14902 -38.88590 3603 ft 180 kts 201°
2026-05-04 23:24 -13.16021 -38.89186 3607 ft 182 kts 204°
2026-05-04 23:24 -13.17141 -38.89779 3613 ft 181 kts 203°
2026-05-04 23:24 -13.18263 -38.90375 3613 ft 181 kts 203°
2026-05-04 23:24 -13.19388 -38.90962 3611 ft 182 kts 203°
2026-05-04 23:25 -13.20512 -38.91518 3610 ft 181 kts 198°
2026-05-04 23:25 -13.21709 -38.91870 3605 ft 178 kts 190°
2026-05-04 23:25 -13.22914 -38.92168 3605 ft 178 kts 190°
2026-05-04 23:25 -13.24121 -38.92454 3606 ft 178 kts 190°
2026-05-04 23:26 -13.25332 -38.92732 3608 ft 179 kts 190°
2026-05-04 23:26 -13.26550 -38.93015 3608 ft 180 kts 190°
2026-05-04 23:26 -13.27767 -38.93306 3609 ft 180 kts 189°
2026-05-04 23:26 -13.28984 -38.93596 3610 ft 179 kts 189°
2026-05-04 23:27 -13.30202 -38.93884 3608 ft 180 kts 190°
2026-05-04 23:27 -13.31424 -38.94175 3610 ft 180 kts 190°
2026-05-04 23:27 -13.32644 -38.94465 3610 ft 180 kts 190°
2026-05-04 23:27 -13.33865 -38.94745 3615 ft 180 kts 190°
2026-05-04 23:28 -13.35084 -38.95025 3613 ft 179 kts 189°
2026-05-04 23:28 -13.36299 -38.95315 3617 ft 179 kts 190°
2026-05-04 23:28 -13.37496 -38.95592 3611 ft 178 kts 187°
2026-05-04 23:28 -13.38716 -38.95742 3614 ft 178 kts 182°
2026-05-04 23:29 -13.39953 -38.95839 3610 ft 178 kts 182°
2026-05-04 23:29 -13.41194 -38.95928 3613 ft 179 kts 182°
2026-05-04 23:29 -13.42435 -38.96010 3614 ft 179 kts 182°
2026-05-04 23:29 -13.43672 -38.96089 3616 ft 178 kts 182°
2026-05-04 23:30 -13.44908 -38.96166 3616 ft 178 kts 182°
2026-05-04 23:30 -13.46148 -38.96245 3619 ft 179 kts 182°
2026-05-04 23:30 -13.47393 -38.96328 3616 ft 179 kts 182°
2026-05-04 23:30 -13.48639 -38.96411 3617 ft 179 kts 181°
2026-05-04 23:31 -13.49879 -38.96501 3614 ft 179 kts 182°
2026-05-04 23:31 -13.51119 -38.96601 3615 ft 178 kts 182°
2026-05-04 23:31 -13.52362 -38.96702 3618 ft 180 kts 182°
2026-05-04 23:31 -13.53609 -38.96787 3618 ft 180 kts 182°
2026-05-04 23:32 -13.54855 -38.96869 3621 ft 179 kts 182°
2026-05-04 23:32 -13.56093 -38.96951 3616 ft 178 kts 181°
2026-05-04 23:32 -13.57330 -38.97038 3616 ft 178 kts 182°
2026-05-04 23:32 -13.58559 -38.97123 3616 ft 177 kts 182°
2026-05-04 23:33 -13.59788 -38.97211 3615 ft 177 kts 182°
2026-05-04 23:33 -13.61016 -38.97297 3616 ft 177 kts 181°
2026-05-04 23:33 -13.62230 -38.97386 3620 ft 178 kts 182°
2026-05-04 23:33 -13.63462 -38.97473 3616 ft 177 kts 182°
2026-05-04 23:34 -13.64695 -38.97560 3615 ft 177 kts 182°
2026-05-04 23:34 -13.65925 -38.97642 3622 ft 177 kts 182°
2026-05-04 23:34 -13.67159 -38.97724 3614 ft 177 kts 181°
2026-05-04 23:34 -13.68210 -38.97801 3616 ft 178 kts 182°
2026-05-04 23:35 -13.69444 -38.97892 3614 ft 178 kts 182°
2026-05-04 23:35 -13.70680 -38.97972 3615 ft 178 kts 182°
2026-05-04 23:35 -13.71918 -38.98041 3617 ft 178 kts 181°
2026-05-04 23:35 -13.73137 -38.98105 3613 ft 177 kts 182°
2026-05-04 23:36 -13.74369 -38.98171 3613 ft 177 kts 181°
2026-05-04 23:36 -13.75594 -38.98248 3615 ft 176 kts 182°
2026-05-04 23:36 -13.76813 -38.98318 3615 ft 175 kts 181°
2026-05-04 23:36 -13.78034 -38.98387 3614 ft 176 kts 182°
2026-05-04 23:37 -13.79262 -38.98452 3618 ft 176 kts 182°
2026-05-04 23:37 -13.80485 -38.98515 3614 ft 175 kts 182°
2026-05-04 23:37 -13.81697 -38.98579 3618 ft 174 kts 181°
2026-05-04 23:37 -13.82908 -38.98645 3617 ft 175 kts 182°
2026-05-04 23:38 -13.84126 -38.98715 3619 ft 176 kts 181°
2026-05-04 23:38 -13.85350 -38.98786 3618 ft 176 kts 182°
2026-05-04 23:38 -13.86571 -38.98844 3617 ft 175 kts 181°
2026-05-04 23:38 -13.87784 -38.98900 3617 ft 174 kts 182°
2026-05-04 23:39 -13.88993 -38.98947 3617 ft 173 kts 182°
2026-05-04 23:39 -13.90202 -38.99002 3619 ft 175 kts 182°
2026-05-04 23:39 -13.91417 -38.99069 3622 ft 175 kts 181°
2026-05-04 23:39 -13.92630 -38.99137 3618 ft 175 kts 182°
2026-05-04 23:40 -13.93847 -38.99202 3618 ft 175 kts 181°
2026-05-04 23:40 -13.95066 -38.99272 3624 ft 176 kts 181°
2026-05-04 23:40 -13.96289 -38.99344 3619 ft 175 kts 182°
2026-05-04 23:40 -13.97507 -38.99408 3620 ft 175 kts 181°
2026-05-04 23:41 -13.98709 -38.99483 3620 ft 176 kts 181°
2026-05-04 23:41 -13.99930 -38.99560 3619 ft 175 kts 182°
2026-05-04 23:41 -14.01143 -38.99628 3622 ft 174 kts 182°
2026-05-04 23:41 -14.02354 -38.99685 3621 ft 174 kts 182°
2026-05-04 23:42 -14.03568 -38.99741 3622 ft 175 kts 181°
2026-05-04 23:42 -14.04790 -38.99807 3621 ft 176 kts 181°
2026-05-04 23:42 -14.06019 -38.99884 3623 ft 177 kts 181°
2026-05-04 23:42 -14.07248 -38.99960 3621 ft 177 kts 182°
2026-05-04 23:43 -14.08479 -39.00030 3628 ft 177 kts 182°
2026-05-04 23:43 -14.09707 -39.00095 3625 ft 176 kts 182°
2026-05-04 23:43 -14.10932 -39.00156 3627 ft 177 kts 182°
2026-05-04 23:43 -14.12159 -39.00219 3627 ft 176 kts 182°
2026-05-04 23:44 -14.13387 -39.00286 3625 ft 176 kts 181°
2026-05-04 23:44 -14.14609 -39.00350 3627 ft 176 kts 182°
2026-05-04 23:44 -14.15841 -39.00411 3631 ft 177 kts 181°
2026-05-04 23:44 -14.17057 -39.00479 3624 ft 178 kts 181°
2026-05-04 23:45 -14.18286 -39.00550 3631 ft 176 kts 181°
2026-05-04 23:45 -14.19506 -39.00623 3628 ft 175 kts 182°
2026-05-04 23:45 -14.20723 -39.00682 3631 ft 176 kts 182°
2026-05-04 23:45 -14.21950 -39.00739 3631 ft 176 kts 181°
2026-05-04 23:46 -14.23175 -39.00801 3629 ft 176 kts 181°
2026-05-04 23:46 -14.24395 -39.00876 3626 ft 176 kts 182°
2026-05-04 23:46 -14.25619 -39.00938 3628 ft 176 kts 182°
2026-05-04 23:46 -14.26845 -39.00990 3632 ft 176 kts 181°
2026-05-04 23:47 -14.28068 -39.01052 3623 ft 175 kts 181°
2026-05-04 23:47 -14.29275 -39.01131 3622 ft 173 kts 182°
2026-05-04 23:47 -14.30479 -39.01168 3620 ft 171 kts 177°
2026-05-04 23:47 -14.31666 -39.01069 3628 ft 172 kts 175°
2026-05-04 23:48 -14.32857 -39.00949 3628 ft 172 kts 174°
2026-05-04 23:48 -14.34031 -39.00831 3626 ft 172 kts 175°
2026-05-04 23:48 -14.35222 -39.00713 3624 ft 172 kts 175°
2026-05-04 23:48 -14.36413 -39.00604 3633 ft 172 kts 174°
2026-05-04 23:49 -14.37608 -39.00506 3621 ft 172 kts 175°
2026-05-04 23:49 -14.38795 -39.00403 3621 ft 171 kts 174°
2026-05-04 23:49 -14.39979 -39.00301 3620 ft 171 kts 175°
2026-05-04 23:49 -14.41166 -39.00203 3623 ft 171 kts 174°
2026-05-04 23:50 -14.42353 -39.00102 3626 ft 172 kts 175°
2026-05-04 23:50 -14.43537 -38.99994 3628 ft 173 kts 174°
2026-05-04 23:50 -14.44738 -38.99892 3631 ft 173 kts 175°
2026-05-04 23:50 -14.45933 -38.99788 3631 ft 172 kts 174°
2026-05-04 23:51 -14.47131 -38.99690 3626 ft 172 kts 174°
2026-05-04 23:51 -14.48322 -38.99595 3622 ft 172 kts 174°
2026-05-04 23:51 -14.49518 -38.99509 3621 ft 172 kts 175°
2026-05-04 23:51 -14.50717 -38.99418 3622 ft 172 kts 174°
2026-05-04 23:52 -14.51917 -38.99394 3625 ft 173 kts 179°
2026-05-04 23:52 -14.53117 -38.99391 3634 ft 172 kts 178°
2026-05-04 23:52 -14.54317 -38.99385 3626 ft 173 kts 178°
2026-05-04 23:52 -14.55527 -38.99380 3623 ft 173 kts 179°
2026-05-04 23:53 -14.56732 -38.99374 3624 ft 173 kts 178°
2026-05-04 23:53 -14.57935 -38.99386 3624 ft 173 kts 179°
2026-05-04 23:53 -14.59119 -38.99403 3627 ft 172 kts 178°
2026-05-04 23:53 -14.60319 -38.99424 3627 ft 173 kts 179°
2026-05-04 23:54 -14.61522 -38.99439 3627 ft 172 kts 179°
2026-05-04 23:54 -14.62716 -38.99436 3625 ft 172 kts 179°
2026-05-04 23:54 -14.63910 -38.99438 3624 ft 171 kts 179°
2026-05-04 23:54 -14.65107 -38.99443 3628 ft 172 kts 178°
2026-05-04 23:55 -14.66310 -38.99455 3625 ft 173 kts 179°
2026-05-04 23:55 -14.67517 -38.99462 3626 ft 174 kts 179°
2026-05-04 23:55 -14.69918 -38.99470 3622 ft 173 kts 179°
2026-05-04 23:56 -14.71119 -38.99473 3627 ft 172 kts 178°
2026-05-04 23:56 -14.72320 -38.99483 3629 ft 173 kts 178°
2026-05-04 23:56 -14.73529 -38.99495 3631 ft 174 kts 179°
2026-05-04 23:56 -14.74738 -38.99501 3630 ft 173 kts 178°
2026-05-04 23:57 -14.75944 -38.99511 3626 ft 173 kts 179°
2026-05-04 23:57 -14.77146 -38.99513 3627 ft 173 kts 178°
2026-05-04 23:57 -14.78351 -38.99510 3626 ft 174 kts 179°
2026-05-04 23:57 -14.79568 -38.99506 3626 ft 175 kts 178°
2026-05-04 23:58 -14.80790 -38.99504 3631 ft 176 kts 178°
2026-05-04 23:58 -14.82018 -38.99511 3630 ft 176 kts 179°